COSMOS 444

Satellite information

Favourite Embed

Satellite Type and Status

PAYLOADIN ORBIT

Key statistics

Satellite COSMOS 444 at a glance.

Uptime

19785

Days in orbit

Revolutions

≈ 12.6

Per day

Orbit

LEO

Low Earth Orbit

Inclination

74.0

Latest

Satellite identification and parameters

Extended collection of information and parameters for COSMOS 444.

Object identification

Identified? True

Debris? False

Object name: COSMOS 444

International designator: 1971-086A

Object number (NORAD): 5547

Object ID (CCSDS): 5547

Country: COMMONWEALTH OF INDEPENDENT STATES (CIS)

Current information (Y/N): Y

RCS size: MEDIUM

Orbital parameters

Period: 114.092 minutes

Inclination: 74.0295 deg

SMA: 7792.282 km

Apoapsis: 1508.278 km

Periapsis: 1320.017 km

RAAN: 345.1451 deg

Eccentricy: 0.01207993

Argument of periapsis: 296.9923 deg

Mean anomaly: 61.8841 deg

Mean motion: 12.62134788 rev/day

Mean motion (dot): 0.00000004 rev/day2

B* drag term: 0.00011447291 1/REarth

Two-line elements (TLE)

Creation date: Dec. 12, 2025, 10:14 a.m.

Reference frame: TEME

Reference center: EARTH

Epoch: Dec. 12, 2025, 7:18 a.m. UTC

TLE line 0: 0 COSMOS 444

TLE line 1: 1 05547U 71086A 25346.30468620 .00000004 00000-0 11447-3 0 9996

TLE line 2: 2 05547 74.0295 345.1451 0120799 296.9923 61.8841 12.62134788495447

Live tracking on map

Real-time ground track for satellite COSMOS 444.

In-orbit conjunctions

There are no conjunctions computed for COSMOS 444, at the moment. Check back to stay up to date, as we update our databases every day.

Go to all conjunctions

Associated space launch

Military communications satellites

COSMOS 444 was lifted into orbit during the mission ‘Kosmos-3M | Strela-1M 17-24’, on board a Kosmos-3M space rocket.

The launch took place on Oct. 13, 1971, 1:41 p.m. from 132/2.

For more information about the launch, click the button.

Launch to space Kosmos-3M | Strela-1M 17-24
Kosmos-3M | Strela-1M 17-24

Agency: N/A

Status: Launch Successful

Launch date: Oct. 13, 1971, 1:41 p.m. UTC

Rocket: Kosmos-3M

Launch pad: 132/2

Location: Plesetsk Cosmodrome, Russian Federation

...

Latest news about this satellite

There are no fresh news available about this satellite. Check back as we update our databases every day.


Newsletter sign-up

Weekly statistics, charts and insights to help you stay on top of the space industry.